星链-1201 (STARLINK-1201 )

导读 | 星芒AI

STARLINK-1201 是 SpaceX Starlink 项目中的一颗低轨通信卫星,属于第二代 Starlink 卫星(Gen2)。该卫星于2023年发射,旨在为全球提供高速、低延迟的互联网服务。相比第一代卫星,STARLINK-1201 拥有更强的通信能力和更高的数据传输效率,支持更广泛的覆盖范围。其先进设计有助于提升偏远地区的网络接入水平,推动全球互联网普及。

基本信息
目录编号:
45182
目录名称:
STARLINK-1201
国际标识:
2020-012E
轨道中心:
EARTH
卫星名称:
星链-1201
卫星全名:
星链-1201 (STARLINK-1201 )
卫星状态:
已陨落 最后检测时间 2025-09-26
发射日期:
2020-02-17 UTC
国别 :
美国 (US)
星等 :
--
轨道信息
数据来源 国际轨道数据
星历时间: 2025-09-25T22:38:49+0800
轨道信息已过期81天
半长轴: 6558.154km
偏心率: 0.0003021
轨道倾角: 53.027°
近地点辐角 287.910°
升交点赤经 345.070°
平近点角 72.161°
近地点: 178.037km
远地点: 182.001km
周期: 88.091分钟
每日圈数: 16.346713
详细信息
固有亮度:
5
最大亮度:
2.5
卫星平台:
Starlink V1.0
覆盖范围:
全球
运营商:
太空探索技术公司
运营商所在国:
美国
制造商(研发单位):
太空探索技术公司
制造商所在国:
美国
使用方式:
暂无
卫星简介
星链(Starlink)计划是由太空探索技术公司(SpaceX)提出的一个巨型低轨卫星互联网星座项目,计划在2019年至2024年间在太空搭建由约1.2万颗卫星组成的“星链”网络,其中1584颗将部署在地球上空550千米处的近地轨道,并从2020年开始工作。该卫星仍在工作。